[[{"header":{"parameterUnit":"m.s-1","parameterCategory":1,"la1":30.2991,"la2":30.254,"lo1":-89.0895,"lo2":-89.0444,"dy":0.0017,"dx":0.0017,"nx":28,"ny":28,"refTime":"2025-09-06T03:00:00:Z","depth":0,"parameterNumber":2,"parameterNumberName":"U-component_of_WINDS"},"data":[0,0,0,0,0,0,0,0,0,0,0,0,0,0,0,0,0,0,0,0,0,0,0,0,0,0,0,0,0,0,0,0,0,0,0,0,0,0,0,0,0,0,0,0,0,0,0,0,0,0,0,0,0,0,0,0,0,0,1.2618,1.2619,0,1.2711,1.2712,1.2713,1.2697,1.2696,1.2694,1.2693,1.279,1.2794,1.2798,0,0,0,0,0,0,0,0,0,0,0,0,0,1.2427,1.243,1.2617,1.2619,1.262,1.2711,1.2712,1.2714,1.2698,1.2696,1.2694,1.2692,1.2789,1.2794,1.2799,0,0,0,0,0,0,0,0,0,0,0,0,0,1.2514,1.2432,1.2617,1.2623,1.2624,1.2711,1.2712,1.2714,1.2698,1.2696,1.2693,1.2691,1.2787,1.2793,1.2799,1.2887,0,0,1.2818,1.2821,0,0,0,0,0,0,0,0,1.2509,1.2521,1.2621,1.2623,1.2624,1.269,1.2681,1.2772,1.2699,1.267,1.2693,1.269,1.2759,1.2767,1.279,1.2891,1.2895,1.2819,1.2822,1.2825,1.2827,0,0,0,0,0,0,0,1.2503,1.2517,1.2655,1.2622,1.2624,1.2621,1.2631,1.2698,1.2727,1.2672,1.2672,1.2683,1.2759,1.2784,1.2792,1.2897,1.2819,1.2824,1.2828,1.283,1.3076,1.3079,0,0,0,0,0,0,1.2495,1.2512,1.2652,1.2657,1.2559,1.2627,1.2638,1.2672,1.2726,1.2732,1.2685,1.2682,1.2775,1.2785,1.2796,1.2903,1.2825,1.2831,1.2834,1.3073,1.3077,1.308,0,0,0,0,0,0,1.2491,1.2508,1.2648,1.2585,1.2602,1.2633,1.2671,1.2675,1.27,1.2736,1.2741,1.2705,1.2774,1.2787,1.2865,1.2906,1.2834,1.2839,1.307,1.3075,1.3078,1.3117,0,0,0,0,0,0,1.2486,1.2506,1.2539,1.2585,1.2606,1.2714,1.2673,1.2678,1.271,1.2707,1.2756,1.2762,1.2773,1.2855,1.2871,1.2913,1.2844,1.3067,1.3072,1.3077,1.3112,1.3122,1.3131,0,0,0,0,0,1.2479,1.2546,1.2541,1.2558,1.2647,1.2717,1.2728,1.2739,1.2713,1.2747,1.2771,1.276,1.2899,1.2863,1.2881,1.2926,1.3064,1.3071,1.3077,1.3108,1.312,1.313,0,0,0,0,0,0,1.2504,1.2552,1.2547,1.2631,1.267,1.2714,1.2757,1.2751,1.2798,1.2794,1.2805,1.2817,1.2896,1.2918,1.2878,1.3014,1.2978,1.2988,1.2996,1.3008,1.3017,1.301,1.2849,0,0,0,0,0,1.2519,1.2571,1.2611,1.2681,1.2701,1.2726,1.2756,1.2761,1.2802,1.2819,1.2848,1.2888,1.2941,1.2976,1.3026,1.3116,1.3127,1.3155,1.3164,1.3172,1.318,1.3231,1.3244,1.3101,1.3101,1.3101,0,0,1.2552,1.2584,1.2616,1.2687,1.2718,1.2772,1.2739,1.2798,1.2839,1.2828,1.2903,1.2926,1.2972,1.3056,1.3094,1.3077,1.3223,1.318,1.3186,1.319,1.3239,1.3252,1.3265,1.3105,1.3104,1.3104,0,0,1.2638,1.2668,1.273,1.2762,1.2809,1.2825,1.284,1.2886,1.29,1.2976,1.2969,1.3018,1.3109,1.3143,1.3172,1.3273,1.3265,1.3289,1.3337,1.3386,1.3398,1.3408,1.3445,1.3458,1.3298,1.3298,1.3298,0,1.2672,1.2753,1.2763,1.2823,1.2855,1.2848,1.2912,1.2942,1.3004,1.3026,1.3006,1.3121,1.3152,1.3244,1.3269,1.3292,1.3311,1.3283,1.3395,1.3405,1.3415,1.3451,1.3464,1.33,1.33,1.33,1.33,0,1.2793,1.285,1.2895,1.2954,1.2992,1.3053,1.3074,1.311,1.3113,1.3131,1.3209,1.3246,1.3305,1.3327,1.333,1.3421,1.3409,1.3392,1.3356,1.3431,1.3465,1.3478,1.3304,1.3303,1.3302,1.3302,0,0,1.2897,1.2963,1.2979,1.3007,1.3059,1.3103,1.3165,1.3223,1.3254,1.3297,1.335,1.3428,1.3413,1.3446,1.3453,1.3496,1.3576,1.3474,1.3475,1.3492,1.368,1.3693,1.3708,1.3571,1.3574,1.3576,1.3676,0,1.2989,1.3098,1.311,1.3208,1.3261,1.3256,1.331,1.3349,1.3368,1.3417,1.3439,1.3494,1.3469,1.349,1.3532,1.3557,1.3614,1.355,1.3622,1.3624,1.3611,1.3726,1.3739,1.3832,1.3689,1.3692,1.3693,0,1.3111,1.3158,1.3261,1.3307,1.333,1.3378,1.3433,1.3479,1.3523,1.3534,1.3572,1.3574,1.3639,1.3601,1.3692,1.3648,1.3679,1.3696,1.37,1.3707,1.3663,1.3737,1.3862,1.3876,1.3714,1.3712,1.3711,0,1.3178,1.3266,1.334,1.3364,1.3419,1.3454,1.3479,1.352,1.3555,1.3602,1.3625,1.368,1.371,1.3753,1.377,1.374,1.3861,1.3824,1.3873,1.3873,1.3899,1.3897,1.4031,1.3918,1.3917,1.3917,1.3917,0,1.3279,1.3343,1.3371,1.3416,1.3488,1.3501,1.3572,1.3595,1.3633,1.3684,1.3683,1.373,1.375,1.3801,1.3815,1.3889,1.3902,1.3914,1.3917,1.3915,1.3913,1.3935,1.3929,1.3921,1.392,1.3919,1.3919,0,1.3366,1.3387,1.3467,1.3513,1.3527,1.3577,1.3618,1.3662,1.3681,1.3746,1.3762,1.3793,1.3853,1.3874,1.3947,1.3957,1.4043,1.4041,1.4028,1.4029,1.4078,1.4074,1.4231,1.4253,1.4124,1.4125,1.4126,0,1.3429,1.3478,1.353,1.3564,1.359,1.3644,1.368,1.3695,1.3732,1.3787,1.3826,1.3886,1.3934,1.4032,1.4061,1.4118,1.4117,1.4168,1.4125,1.4122,1.4119,1.4116,1.4122,1.4176,1.4177,1.4179,1.4179,0,1.3541,1.3549,1.3599,1.3654,1.3696,1.374,1.3783,1.3811,1.3833,1.3875,1.3937,1.3974,1.405,1.411,1.4168,1.4195,1.4192,1.4193,1.4207,1.4206,1.4197,1.4203,1.4051,1.4189,1.4188,1.4187,1.4187,1.4186,1.3618,1.3662,1.3706,1.3763,1.3796,1.3837,1.3881,1.3906,1.3958,1.402,1.4027,1.4094,1.4139,1.4217,1.4246,1.43,1.4285,1.4306,1.4312,1.4317,1.4321,1.4188,1.431,1.431,1.431,1.4309,1.4309,0,1.373,1.3759,1.3811,1.387,1.3916,1.3908,1.3955,1.3994,1.4053,1.4094,1.4143,1.4215,1.4274,1.4308,1.4367,1.4404,1.4404,1.4419,1.4417,1.4423,1.433,1.4312,1.4418,1.4418,1.4418,1.4418,1.4418,1.4418,1.3794,1.3868,1.3882,1.3973,1.4001,1.4067,1.4095,1.4132,1.4166,1.4246,1.4295,1.4317,1.4357,1.4419,1.4473,1.4482,1.4504,1.4521,1.4529,1.4441,1.443,1.4419,1.4402,1.4525,1.4526,1.4618,1.4619,1.4619]},{"header":{"parameterUnit":"m.s-1","parameterCategory":1,"la1":30.2991,"la2":30.254,"lo1":-89.0895,"lo2":-89.0444,"dy":0.0017,"dx":0.0017,"nx":28,"ny":28,"refTime":"2025-09-06T03:00:00:Z","depth":0,"parameterNumber":3,"parameterNumberName":"V-component_of_WINDS"},"data":[0,0,0,0,0,0,0,0,0,0,0,0,0,0,0,0,0,0,0,0,0,0,0,0,0,0,0,0,0,0,0,0,0,0,0,0,0,0,0,0,0,0,0,0,0,0,0,0,0,0,0,0,0,0,0,0,0,0,-2.6092,-2.6092,0,-2.6145,-2.6146,-2.6146,-2.6165,-2.6164,-2.6164,-2.6164,-2.6214,-2.6215,-2.6217,0,0,0,0,0,0,0,0,0,0,0,0,0,-2.6001,-2.6002,-2.6091,-2.6092,-2.6093,-2.6145,-2.6146,-2.6146,-2.6165,-2.6164,-2.6164,-2.6164,-2.6213,-2.6215,-2.6217,0,0,0,0,0,0,0,0,0,0,0,0,0,-2.6046,-2.6003,-2.6091,-2.6108,-2.611,-2.6145,-2.6146,-2.6147,-2.6165,-2.6164,-2.6164,-2.6164,-2.6213,-2.6215,-2.6217,-2.6237,0,0,-2.6224,-2.6225,0,0,0,0,0,0,0,0,-2.6043,-2.6049,-2.6105,-2.6107,-2.611,-2.6148,-2.6132,-2.6177,-2.6165,-2.6144,-2.6164,-2.6164,-2.6192,-2.6196,-2.6206,-2.624,-2.6242,-2.6224,-2.6226,-2.6227,-2.6227,0,0,0,0,0,0,0,-2.604,-2.6047,-2.6113,-2.6106,-2.6109,-2.6112,-2.6118,-2.6141,-2.6169,-2.6146,-2.6147,-2.6153,-2.6193,-2.6204,-2.6208,-2.6243,-2.6224,-2.6226,-2.6228,-2.6229,-2.6295,-2.6296,0,0,0,0,0,0,-2.6035,-2.6044,-2.6111,-2.6114,-2.6075,-2.6114,-2.612,-2.6136,-2.6169,-2.6173,-2.6154,-2.6154,-2.62,-2.6205,-2.621,-2.6235,-2.6227,-2.6229,-2.623,-2.6295,-2.6295,-2.6296,0,0,0,0,0,0,-2.6033,-2.604,-2.6109,-2.608,-2.6089,-2.6116,-2.6133,-2.6137,-2.6148,-2.6175,-2.6179,-2.616,-2.62,-2.6206,-2.6231,-2.6237,-2.623,-2.6232,-2.6294,-2.6295,-2.6295,-2.6287,0,0,0,0,0,0,-2.603,-2.604,-2.6048,-2.608,-2.609,-2.613,-2.6133,-2.6138,-2.6153,-2.6154,-2.6182,-2.6186,-2.6201,-2.6227,-2.6233,-2.624,-2.6234,-2.6294,-2.6295,-2.6295,-2.6287,-2.6287,-2.6288,0,0,0,0,0,-2.6027,-2.6043,-2.6049,-2.6057,-2.6102,-2.6131,-2.6136,-2.6154,-2.6153,-2.6162,-2.6179,-2.6185,-2.6236,-2.623,-2.6236,-2.6244,-2.6293,-2.6294,-2.6295,-2.6287,-2.6287,-2.6288,0,0,0,0,0,0,-2.601,-2.6047,-2.6054,-2.6081,-2.6103,-2.6134,-2.6145,-2.6154,-2.6174,-2.6174,-2.6194,-2.62,-2.6223,-2.6236,-2.6228,-2.6266,-2.6265,-2.6267,-2.6256,-2.6257,-2.6257,-2.6253,-2.6236,0,0,0,0,0,-2.601,-2.6031,-2.6062,-2.6083,-2.6094,-2.6117,-2.613,-2.6142,-2.6165,-2.6173,-2.6192,-2.6212,-2.6233,-2.6245,-2.6266,-2.6289,-2.6295,-2.6298,-2.6298,-2.6299,-2.63,-2.6313,-2.6315,-2.6299,-2.6299,-2.6299,0,0,-2.6008,-2.6032,-2.6044,-2.608,-2.6098,-2.6119,-2.6125,-2.6146,-2.6161,-2.6176,-2.6201,-2.6215,-2.6239,-2.6263,-2.6274,-2.6275,-2.6306,-2.63,-2.63,-2.6301,-2.6315,-2.6316,-2.6317,-2.6299,-2.6299,-2.6299,0,0,-2.6017,-2.6037,-2.6057,-2.6076,-2.6104,-2.612,-2.6124,-2.6154,-2.6165,-2.619,-2.6202,-2.6219,-2.6254,-2.6271,-2.6284,-2.63,-2.6307,-2.6306,-2.6308,-2.6321,-2.6322,-2.6323,-2.6329,-2.633,-2.6307,-2.6307,-2.6307,0,-2.6012,-2.6046,-2.6066,-2.6087,-2.6103,-2.6119,-2.6138,-2.6155,-2.6187,-2.6196,-2.6197,-2.6241,-2.6258,-2.6287,-2.6291,-2.6301,-2.6306,-2.6302,-2.632,-2.6322,-2.6323,-2.6329,-2.6331,-2.6307,-2.6307,-2.6307,-2.6307,0,-2.6038,-2.606,-2.6073,-2.6106,-2.6123,-2.6143,-2.6165,-2.6179,-2.619,-2.6205,-2.6231,-2.6252,-2.6277,-2.6285,-2.6294,-2.6314,-2.6314,-2.6317,-2.6316,-2.6324,-2.633,-2.6332,-2.6307,-2.6307,-2.6307,-2.6307,0,0,-2.6037,-2.6082,-2.6086,-2.6101,-2.6134,-2.6151,-2.6172,-2.6198,-2.621,-2.6231,-2.6249,-2.6278,-2.6282,-2.6297,-2.6308,-2.6319,-2.6331,-2.6321,-2.6322,-2.6322,-2.6354,-2.6351,-2.6354,-2.6336,-2.6336,-2.6337,-2.6352,0,-2.605,-2.609,-2.6109,-2.6139,-2.616,-2.6176,-2.6194,-2.6215,-2.623,-2.6249,-2.6265,-2.6286,-2.6289,-2.6298,-2.631,-2.6327,-2.6337,-2.6326,-2.6351,-2.6352,-2.6345,-2.6356,-2.6354,-2.6367,-2.6354,-2.6355,-2.6355,0,-2.607,-2.6094,-2.6127,-2.6158,-2.6168,-2.6184,-2.6209,-2.6228,-2.6252,-2.6262,-2.6279,-2.629,-2.6312,-2.631,-2.6339,-2.6331,-2.6342,-2.6352,-2.6353,-2.6356,-2.6354,-2.6359,-2.6372,-2.6374,-2.6359,-2.6358,-2.6358,0,-2.6066,-2.6106,-2.6132,-2.6144,-2.6181,-2.6192,-2.6207,-2.6231,-2.6245,-2.6267,-2.6277,-2.63,-2.6313,-2.633,-2.6348,-2.6345,-2.6375,-2.6375,-2.6383,-2.6383,-2.6388,-2.6388,-2.6402,-2.6396,-2.6396,-2.6396,-2.6396,0,-2.6079,-2.6098,-2.6131,-2.6146,-2.6168,-2.619,-2.6211,-2.6227,-2.6248,-2.6266,-2.6281,-2.6297,-2.6319,-2.6337,-2.6351,-2.6373,-2.6378,-2.6386,-2.6389,-2.6385,-2.6384,-2.6392,-2.6392,-2.6396,-2.6396,-2.6396,-2.6396,0,-2.6078,-2.61,-2.6129,-2.6162,-2.617,-2.6185,-2.6212,-2.6227,-2.6244,-2.6266,-2.6273,-2.6297,-2.632,-2.634,-2.6369,-2.6378,-2.6401,-2.6404,-2.6393,-2.6395,-2.6402,-2.6401,-2.6422,-2.6426,-2.6417,-2.6417,-2.6417,0,-2.6084,-2.61,-2.6135,-2.6149,-2.6165,-2.6187,-2.6203,-2.6224,-2.6239,-2.6268,-2.6279,-2.6304,-2.6324,-2.636,-2.6379,-2.6402,-2.6406,-2.6412,-2.641,-2.6405,-2.6406,-2.6405,-2.6407,-2.6412,-2.6412,-2.6412,-2.6412,0,-2.6093,-2.6104,-2.6127,-2.6154,-2.6173,-2.6194,-2.6216,-2.6226,-2.6251,-2.6268,-2.6292,-2.6308,-2.6339,-2.6363,-2.6388,-2.6402,-2.6411,-2.6413,-2.6416,-2.6412,-2.6404,-2.6408,-2.6393,-2.6412,-2.6412,-2.6412,-2.6412,-2.6412,-2.6096,-2.6111,-2.6138,-2.6163,-2.6183,-2.6203,-2.6219,-2.6238,-2.6259,-2.6288,-2.6298,-2.6323,-2.6347,-2.6381,-2.6396,-2.6415,-2.6416,-2.642,-2.6421,-2.6422,-2.6421,-2.6402,-2.6419,-2.6419,-2.6419,-2.6419,-2.6419,0,-2.6106,-2.6124,-2.6147,-2.6179,-2.6198,-2.6207,-2.6232,-2.6247,-2.627,-2.6291,-2.6312,-2.634,-2.6363,-2.6385,-2.6409,-2.642,-2.6425,-2.6425,-2.6425,-2.6428,-2.6419,-2.6414,-2.6421,-2.6421,-2.6421,-2.6421,-2.6421,-2.6421,-2.6113,-2.6139,-2.6153,-2.6188,-2.6207,-2.6233,-2.6246,-2.6265,-2.6282,-2.6314,-2.6334,-2.6349,-2.637,-2.6396,-2.6417,-2.6423,-2.6431,-2.6431,-2.6437,-2.6429,-2.6428,-2.6428,-2.6423,-2.6432,-2.6432,-2.6445,-2.6445,-2.6445]}]]